Weather History for KTYS - October, 2011

Change the Weather History Date:

Thursday, October 27, 2011

  Actual Average Record
Temperature  
Mean Temperature 57 °F 56 °F  
Max Temperature 64 °F 68 °F 85 °F (1940)
Min Temperature 50 °F 45 °F 25 °F (1962)
Degree Days  
Heating Degree Days 8 9  
Month to date heating degree days 154 155  
Since 1 July heating degree days 165 178  
Cooling Degree Days 0 0  
Month to date cooling degree days 15 37  
Year to date cooling degree days 1864 1524  
Growing Degree Days 8 (Base 50)    
Moisture  
Dew Point 50 °F    
Average Humidity 76    
Maximum Humidity 96    
Minimum Humidity 56    
Precipitation  
Precipitation 0.08 in 0.09 in 1.39 in (1995)
Month to date precipitation 3.16 2.15  
Year to date precipitation 43.05 38.99  
Snow  
Snow 0.00 in 0.00 in - ()
Month to date snowfall 0.0 0.0  
Since 1 July snowfall 0.0 0.0  
Since 1 September snowfall 0.0 0.0  
Snow Depth 0.00 in    
Sea Level Pressure  
Sea Level Pressure 29.91 in    
Wind  
Wind Speed 9 mph (West)    
Max Wind Speed 18 mph    
Max Gust Speed 23 mph    
Visibility 9 miles    
Events Rain    
T = Trace of Precipitation, MM = Missing Value Source: NWS Daily Summary

Daily Weather History Graph

Daily Weather History Graph

Search for Another Location

Airport or City:

Trip Planner

Search our weather history database for the weather conditions in past years. The results will help you decide how hot, cold, wet, or windy it might be!

Date:

Astronomy

Oct. 27, 2011 Rise Set
Actual Time 7:53 AM EDT 6:45 PM EDT
Civil Twilight 7:26 AM EDT 7:12 PM EDT
Nautical Twilight 6:56 AM EDT 7:42 PM EDT
Astronomical Twilight 6:27 AM EDT 8:11 PM EDT
Moon 8:51 AM EDT (10/27) 7:18 PM EDT (10/27)
Length of Visible Light 11h 45m
Length of Day
10h 52m
New Moon, 1% of the Moon is Illuminated
Oct 27
New Moon
Nov 2
First Quarter
Nov 10
Full
Nov 18
Last Quarter
Nov 25
New

Hourly Weather History & Observations

Time (EDT) Temp. Dew Point Humidity Pressure Visibility Wind Dir Wind Speed Gust Speed Precip Events Conditions
12:53 AM 57.9 °F 44.1 °F 60% 29.90 in 10.0 mi SSW 9.2 mph - N/A   Clear
1:53 AM 57.9 °F 44.1 °F 60% 29.89 in 10.0 mi WSW 6.9 mph - N/A   Clear
2:53 AM 57.0 °F 45.0 °F 64% 29.88 in 10.0 mi SW 8.1 mph - N/A   Clear
3:53 AM 60.1 °F 46.0 °F 60% 29.86 in 10.0 mi SW 12.7 mph - N/A   Clear
4:53 AM 63.0 °F 46.9 °F 56% 29.86 in 10.0 mi SW 15.0 mph - N/A   Clear
5:53 AM 62.1 °F 46.9 °F 58% 29.86 in 10.0 mi SSW 13.8 mph - N/A   Clear
6:53 AM 61.0 °F 48.0 °F 62% 29.85 in 10.0 mi SW 11.5 mph - N/A   Clear
7:53 AM 60.1 °F 48.9 °F 67% 29.86 in 10.0 mi WSW 10.4 mph - N/A   Scattered Clouds
8:53 AM 62.1 °F 48.9 °F 62% 29.87 in 10.0 mi West 6.9 mph - N/A   Mostly Cloudy
9:53 AM 61.0 °F 50.0 °F 67% 29.89 in 10.0 mi WNW 8.1 mph - N/A   Overcast
10:53 AM 62.1 °F 50.0 °F 65% 29.89 in 10.0 mi WSW 6.9 mph - N/A   Overcast
11:53 AM 63.0 °F 50.0 °F 63% 29.86 in 10.0 mi SSW 12.7 mph - N/A   Overcast
12:53 PM 64.0 °F 52.0 °F 65% 29.86 in 10.0 mi West 8.1 mph - 0.00 in Rain Light Rain
1:53 PM 64.0 °F 54.0 °F 70% 29.85 in 9.0 mi WSW 11.5 mph - 0.00 in Rain Light Rain
2:53 PM 63.0 °F 54.0 °F 72% 29.84 in 10.0 mi West 8.1 mph - 0.00 in Rain Light Rain
3:53 PM 63.0 °F 54.0 °F 72% 29.85 in 10.0 mi West 5.8 mph - 0.00 in   Overcast
4:53 PM 63.0 °F 54.0 °F 72% 29.86 in 10.0 mi WNW 5.8 mph - N/A   Overcast
5:32 PM 62.6 °F 53.6 °F 72% 29.90 in 10.0 mi NW 10.4 mph 17.3 mph 0.00 in Rain Light Rain
5:53 PM 59.0 °F 54.0 °F 83% 29.90 in 4.0 mi North 11.5 mph - 0.02 in Rain Light Rain
6:53 PM 55.9 °F 52.0 °F 87% 29.93 in 10.0 mi NNE 6.9 mph - 0.01 in   Overcast
7:40 PM 53.6 °F 51.8 °F 94% 29.97 in 4.0 mi East 5.8 mph - 0.00 in Rain Light Rain
7:46 PM 53.6 °F 51.8 °F 94% 29.97 in 4.0 mi East 6.9 mph - 0.00 in Rain Light Rain
7:53 PM 54.0 °F 52.0 °F 93% 29.96 in 5.0 mi East 4.6 mph - 0.00 in Rain Light Rain
8:53 PM 53.1 °F 48.9 °F 86% 29.99 in 5.0 mi NNE 8.1 mph - 0.01 in Rain Light Rain
9:53 PM 52.0 °F 50.0 °F 93% 30.01 in 4.0 mi North 4.6 mph - 0.04 in Rain Light Rain
10:15 PM 51.8 °F 50.0 °F 94% 30.02 in 10.0 mi North 6.9 mph - 0.00 in   Overcast
10:53 PM 51.1 °F 48.9 °F 92% 30.02 in 10.0 mi NNE 6.9 mph - 0.00 in Rain Light Rain
11:53 PM 51.1 °F 48.9 °F 92% 30.01 in 10.0 mi North 9.2 mph - 0.00 in   Overcast
11:59 PM 51.8 °F 48.2 °F 88% 30.03 in 10.0 mi North 10.4 mph - N/A   Overcast